Theta_e
316 310 307 310 312 311 309 307 306 309 311 308 308 308 311 315 315 315 316 317 318 319 322 324 329 332 335 338 342 344 345 348 342 340 338 337 337 338 339 341 342 344 345 346
311 307 312 314 312 309 308 306 306 309 311 309 308 307 311 313 314 316 316 317 318 319 321 322 324 331 335 337 341 343 345 347 345 339 339 339 339 339 340 341 343 344 344 343
308 311 310 310 310 307 307 306 306 306 308 309 307 305 308 312 314 315 317 318 318 318 318 320 321 325 331 334 338 342 345 346 344 339 342 341 341 340 339 341 341 343 343 341
309 313 308 307 306 308 304 310 308 306 305 300 308 298 306 310 310 312 315 317 318 318 319 320 320 323 327 331 336 336 339 345 341 338 339 338 337 336 338 340 344 341 340 334
307 307 307 306 307 309 305 309 307 307 304 304 304 301 305 310 308 311 314 317 318 320 320 321 324 327 330 333 338 339 338 341 343 338 339 339 340 340 343 342 339 337 332 329
309 311 309 309 310 310 309 306 306 306 304 296 302 302 303 306 309 311 313 316 317 318 320 323 326 329 330 335 336 337 339 342 341 337 338 340 340 340 338 336 329 325 324 324
307 307 309 309 306 309 308 304 297 296 297 296 304 301 304 310 311 312 313 315 317 318 320 322 324 327 329 332 333 332 334 333 336 335 338 340 341 338 334 328 322 320 319 320
301 299 306 309 307 306 305 305 298 291 294 298 302 297 303 311 313 313 315 315 316 318 320 322 324 327 329 331 332 331 331 331 332 334 338 342 338 336 329 324 319 318 318 318
300 300 309 308 310 309 305 301 307 300 301 296 300 304 309 311 311 312 312 314 316 317 319 320 324 328 330 331 333 331 331 332 334 336 338 338 338 331 323 324 322 319 320 317
305 299 306 308 308 309 306 308 299 301 292 291 298 300 301 305 307 310 311 312 315 317 318 320 323 326 330 332 335 336 336 335 335 336 338 335 326 324 322 322 321 319 320 320
307 304 302 306 304 302 304 302 303 303 300 293 292 298 309 308 310 311 313 314 315 317 318 319 322 326 328 331 333 335 336 337 338 338 331 327 325 324 323 321 321 320 321 320
307 304 298 301 308 309 307 305 305 298 297 301 300 299 312 313 313 312 312 313 315 317 317 319 320 322 325 328 329 331 333 333 331 327 324 325 325 323 322 320 319 320 318 318
306 302 295 298 303 306 303 305 305 305 303 298 296 299 310 311 311 313 313 315 315 315 316 318 319 319 321 324 326 327 329 329 326 322 321 323 322 321 319 318 318 317 314 312
307 303 299 296 299 304 301 303 305 304 299 300 300 302 306 309 310 312 313 314 315 316 316 318 319 319 320 321 322 323 323 326 323 320 319 318 318 317 316 316 314 312 309 308
307 299 301 302 303 303 302 302 303 301 303 298 302 302 306 309 311 313 315 315 315 316 316 317 318 319 319 320 320 321 322 320 320 317 315 316 317 316 315 312 310 310 308 307
307 299 302 299 302 301 300 302 303 303 304 304 304 304 310 312 314 313 314 314 314 315 316 317 318 318 317 317 318 319 321 320 317 314 312 314 314 310 309 307 308 307 307 305
304 303 298 293 301 300 296 301 303 304 306 304 301 306 311 310 311 313 314 315 314 316 316 317 317 317 317 318 318 317 319 319 314 313 312 311 307 305 305 306 305 305 305 305
302 301 297 291 294 285 300 308 307 305 306 309 308 309 310 311 313 315 316 315 315 315 316 317 317 317 318 318 316 316 316 314 312 311 308 306 305 304 305 305 304 304 304 304
306 299 290 287 287 294 299 303 304 303 303 309 308 310 311 313 314 313 316 317 317 317 318 318 317 316 316 315 313 313 312 311 309 307 305 305 305 304 304 303 303 304 304 304
302 302 293 287 285 285 299 307 310 309 298 309 310 311 311 312 305 310 316 317 317 317 315 312 312 312 312 312 311 310 309 307 305 305 305 305 305 304 303 303 303 304 304 303
296 295 290 289 287 293 304 307 310 296 300 311 312 312 311 309 312 314 314 314 313 312 310 309 309 309 309 310 310 307 306 304 305 305 305 305 305 303 303 303 304 304 302 301
294 290 289 291 287 286 307 306 301 308 313 312 312 312 312 313 313 314 312 311 309 307 306 306 307 308 308 308 305 304 304 305 305 305 303 303 303 302 301 302 303 303 301 300
294 296 297 297 296 307 310 310 313 314 313 313 313 314 312 311 311 312 309 307 306 306 306 306 306 305 305 305 304 302 301 302 302 303 302 302 300 299 300 301 301 299 300 299
302 305 299 301 305 305 309 311 312 313 312 312 313 310 309 306 307 306 306 305 305 305 304 304 303 301 300 302 301 302 302 302 302 300 299 300 299 299 298 298 297 297 298 298
296 296 299 298 300 302 306 306 305 308 309 308 307 306 306 306 306 306 304 305 303 303 302 302 301 301 300 301 302 302 301 300 299 298 298 299 299 299 298 298 296 294 292 296
296 296 293 292 297 296 298 302 303 301 302 303 302 303 305 303 303 305 305 306 305 303 301 299 299 300 299 300 299 299 299 298 297 296 297 297 297 296 296 295 294 289 287 288
Wind_Speed
13 10 13 14 16 17 11 14 14 10 4 4 15 17 17 16 12 15 14 13 13 14 13 12 12 15 15 15 17 18 17 18 13 9 9 8 8 7 7 9 11 11 9 10
11 14 15 10 11 8 13 15 15 13 10 6 16 19 16 15 17 17 16 17 19 18 17 14 7 8 12 15 15 17 17 17 15 9 9 9 10 7 10 9 11 11 11 10
15 7 4 10 12 13 15 16 15 13 6 13 17 20 24 23 20 18 15 11 13 4 5 6 9 11 10 10 11 14 17 17 14 13 11 10 11 9 10 10 10 12 12 9
12 12 8 8 10 10 14 15 12 13 12 11 3 13 8 7 10 14 15 13 8 6 5 4 4 7 9 9 10 12 15 15 18 18 14 14 12 13 11 12 9 10 12 11
3 7 10 12 14 6 8 2 8 12 14 15 17 11 13 12 9 13 14 12 7 6 5 3 5 7 8 7 7 8 13 14 18 15 12 13 16 12 9 8 13 10 9 8
18 0 7 11 6 9 2 6 10 12 12 14 18 15 10 12 15 6 5 8 9 7 5 4 4 3 6 6 7 9 11 12 14 13 15 17 17 13 11 8 8 8 9 8
18 17 9 9 9 7 10 9 8 10 9 12 2 5 12 12 2 5 7 10 7 4 3 3 5 8 6 8 7 7 9 9 12 10 14 13 15 11 12 13 11 11 8 8
10 13 19 14 16 7 14 14 8 11 11 12 9 6 8 3 5 3 8 4 6 7 6 4 5 6 7 8 9 10 10 11 13 14 16 15 13 9 11 12 9 8 7 7
8 11 8 5 11 10 9 10 13 15 15 16 16 20 14 14 14 12 10 10 11 8 7 5 5 6 7 8 9 11 12 12 13 13 11 11 12 13 10 10 8 7 6 4
7 13 10 11 6 13 15 8 7 9 10 17 11 14 9 7 10 9 10 12 12 9 9 8 7 8 8 9 11 13 15 16 15 13 13 12 12 10 10 9 10 9 6 5
12 12 12 7 12 16 11 15 15 17 14 16 17 14 5 7 8 6 8 9 9 10 10 9 9 10 11 11 12 14 14 16 18 17 15 13 12 12 11 9 9 8 7 5
17 7 15 21 17 15 15 19 17 14 14 16 17 14 14 15 14 10 12 8 10 12 9 9 8 10 11 13 14 14 15 16 14 15 15 12 10 10 11 11 10 8 8 6
8 8 13 19 16 17 14 20 21 21 21 24 21 11 5 7 8 13 17 15 13 13 11 10 13 13 13 14 14 15 16 16 15 15 14 12 10 11 12 11 10 9 7 6
2 14 18 15 17 17 19 19 20 22 20 18 21 25 23 21 19 20 19 17 16 16 18 17 13 14 13 15 14 15 16 14 14 15 13 13 13 12 11 10 9 7 6 6
6 21 21 24 26 26 28 29 27 29 26 26 18 30 22 22 21 21 21 20 22 21 20 18 18 17 15 14 14 14 15 16 15 14 15 14 13 13 12 10 9 7 5 5
10 19 19 27 25 26 34 32 30 32 32 36 31 40 25 27 25 25 23 24 23 22 22 21 18 16 14 14 14 13 15 14 14 14 14 13 14 13 10 7 9 7 7 5
18 14 8 19 18 22 32 23 35 36 34 29 35 37 22 26 26 23 22 21 17 16 17 16 14 13 13 13 13 14 13 11 13 14 15 14 12 12 8 8 7 6 4 4
15 17 7 5 4 20 12 17 20 23 29 30 36 30 28 29 27 26 22 23 22 18 17 14 9 12 13 11 10 10 10 12 13 13 14 13 11 8 8 7 5 4 3 5
19 11 5 7 10 23 30 19 14 18 26 22 25 27 26 23 23 21 18 20 17 14 10 9 9 8 7 8 8 9 11 13 13 15 14 13 11 10 8 6 4 3 3 4
25 19 13 4 7 18 9 15 22 28 40 23 28 27 24 17 15 12 14 14 8 5 6 6 6 6 6 7 8 10 12 15 14 13 11 10 8 6 7 5 4 3 4 6
16 15 21 16 11 20 12 17 6 18 9 6 7 11 13 14 12 14 2 3 2 4 5 5 5 7 7 9 11 11 10 11 12 10 9 7 7 6 5 4 4 4 3 3
15 11 12 12 12 30 8 16 29 14 19 21 15 12 16 16 14 14 4 5 5 5 4 5 7 7 8 10 11 12 8 8 9 9 8 8 5 3 2 4 5 4 4 5
20 11 11 16 14 19 12 14 16 19 24 24 23 18 15 13 13 10 5 4 5 5 6 7 8 9 10 12 10 12 11 10 9 9 7 6 5 3 0 4 5 5 6 6
12 16 16 21 24 24 23 21 20 24 18 14 12 7 11 11 9 5 6 4 5 4 6 7 8 9 10 9 10 11 10 9 9 8 7 6 4 3 5 4 3 5 5 3
5 11 9 14 12 13 18 14 14 12 13 12 11 8 10 9 10 8 5 6 6 6 6 8 9 10 10 8 8 7 8 6 5 4 3 3 3 4 4 4 3 4 3 1
6 10 6 2 6 7 5 10 13 12 12 11 8 10 8 9 13 14 10 11 11 10 8 9 9 10 10 10 10 8 6 4 4 2 3 0 2 3 3 3 2 5 4 5
Wind_Direction
247 253 234 245 232 264 314 290 287 285 256 244 265 261 262 263 224 220 224 227 229 234 234 229 195 218 210 209 189 197 188 183 174 182 179 171 180 180 180 201 195 195 207 210
232 242 256 271 268 268 260 263 263 266 262 281 267 269 265 250 243 242 232 227 227 225 221 212 211 235 213 214 210 201 201 195 180 182 181 184 181 181 185 194 196 203 208 211
251 315 360 265 228 237 245 256 265 274 273 232 261 270 247 238 240 241 241 255 264 276 273 229 214 213 213 228 236 227 204 199 162 168 202 186 179 178 196 195 198 203 200 206
264 255 208 233 238 238 256 240 253 270 264 267 136 280 289 190 214 214 226 223 220 198 180 196 205 208 214 226 225 225 224 198 158 170 201 190 183 188 194 195 190 187 187 186
125 201 216 239 250 229 272 3 261 254 260 275 268 253 262 246 218 228 229 154 168 146 168 179 179 203 201 192 192 234 219 203 171 172 199 198 198 204 186 197 195 174 170 196
270 181 247 245 218 224 332 237 243 252 254 255 253 253 263 230 197 120 87 122 147 170 176 172 152 183 203 174 177 213 222 182 186 184 198 204 210 198 194 170 169 187 175 185
220 223 218 231 218 206 220 242 253 218 214 251 163 260 255 318 306 276 191 185 175 192 211 184 203 192 189 175 180 202 202 196 195 189 215 213 209 184 192 186 188 180 186 192
217 193 193 186 227 226 206 249 260 292 296 295 153 231 237 268 31 289 276 245 230 216 185 218 219 200 182 184 178 189 196 194 195 198 214 205 204 188 196 191 182 192 191 197
244 253 171 203 214 238 203 234 264 278 272 269 268 272 262 227 214 236 241 236 223 222 197 218 201 196 201 189 191 199 196 196 198 198 205 206 191 202 195 174 191 182 191 205
275 265 208 192 234 240 253 293 246 217 258 265 246 247 262 174 197 232 235 228 221 225 201 211 217 201 211 206 192 194 202 203 196 198 203 201 195 198 190 181 189 190 192 194
231 236 253 165 211 250 199 232 239 268 272 274 277 271 52 356 353 296 248 230 231 214 223 226 222 212 216 222 216 199 205 215 199 200 194 189 191 185 193 191 197 194 193 193
223 254 247 241 232 252 268 277 264 243 260 255 262 254 265 278 266 230 255 247 233 258 237 241 231 230 235 228 222 219 211 218 203 198 199 196 183 187 195 192 191 179 186 198
166 222 255 250 247 242 241 253 256 264 273 265 267 258 171 215 249 272 270 273 252 216 242 238 261 272 263 230 237 229 216 212 213 200 202 192 195 197 196 189 183 169 188 203
144 246 255 255 258 280 271 248 239 254 255 268 256 277 264 265 264 245 255 259 256 253 261 265 276 272 248 255 259 230 234 212 211 208 197 200 196 196 189 177 169 179 191 223
223 248 251 263 271 271 272 269 265 261 249 251 263 263 267 267 270 275 281 270 256 256 257 272 263 273 272 265 252 248 223 214 206 209 209 199 189 184 174 164 173 181 207 241
212 259 267 266 268 272 269 261 259 262 264 266 272 268 273 274 277 268 267 268 271 275 267 266 272 262 259 261 260 237 236 212 194 207 212 192 179 164 166 170 182 193 220 265
235 253 258 267 267 284 267 259 249 253 251 259 260 264 269 268 268 270 273 268 275 273 277 273 266 265 262 258 256 249 225 218 198 210 200 188 170 169 170 178 194 215 255 315
244 236 225 257 143 238 265 246 242 251 247 245 258 270 268 269 273 274 278 274 274 275 272 274 267 270 268 266 255 239 215 192 198 202 190 179 171 175 174 189 211 239 284 296
233 233 229 228 216 272 268 275 256 251 256 248 255 262 264 272 280 276 269 267 273 275 295 282 274 278 267 243 230 208 193 183 195 192 186 183 175 181 176 203 232 279 319 304
227 228 221 185 218 248 283 236 237 245 263 242 249 255 267 267 258 260 271 275 255 289 289 268 240 226 228 218 194 188 181 176 185 184 185 179 183 189 188 200 224 215 246 261
205 211 217 221 241 267 240 267 222 228 292 185 254 265 257 252 261 298 51 99 157 199 206 218 208 211 201 184 180 177 171 180 179 178 166 164 176 187 204 219 219 233 230 271
190 180 210 220 228 256 210 242 228 258 257 274 287 270 270 272 271 273 189 239 189 202 195 215 211 187 167 167 174 164 127 114 131 146 158 163 169 174 207 234 247 270 260 237
240 210 212 199 223 246 259 259 266 275 258 261 270 290 273 274 270 264 230 237 224 217 198 201 187 162 171 167 168 161 161 146 146 150 132 140 138 133 2 274 259 247 250 259
244 245 229 241 240 253 262 262 276 269 285 301 286 272 266 272 264 265 293 235 231 218 206 198 169 173 173 169 165 144 144 144 144 140 158 158 183 197 188 226 251 246 253 214
325 329 287 262 290 329 297 330 341 327 297 306 301 305 293 284 277 267 283 289 267 220 211 200 186 182 164 143 119 119 127 142 145 150 181 219 224 219 237 215 193 233 252 215
232 264 257 281 27 358 332 335 342 345 324 314 315 294 286 262 282 282 259 247 248 229 194 184 197 168 149 149 132 117 102 95 121 197 238 219 319 285 291 272 244 238 233 186